CEB1134 RPVI-RPLL

Flight info

Callsign CEB1134
Flight time N/A
Altitude 28000
Route LAMBO1S LAMBO B472 IBAGO IBAGO5R
Aircraft A21N/L-V/N

Departure

Time N/A
Airport Iloilo International Airport (RPVI)

Arrival

Time 2026-05-01 14:00
Airport Ninoy Aquino International Airport (RPLL)
Time Latitude Longitude Altitude Speed Heading
2026-05-01 13:35 12.88344 121.60112 27657 ft 449 kts 337°
2026-05-01 13:36 12.91213 121.58851 27411 ft 447 kts 337°
2026-05-01 13:36 12.94068 121.57595 27163 ft 445 kts 337°
2026-05-01 13:36 12.99751 121.55095 26668 ft 443 kts 337°
2026-05-01 13:37 13.02553 121.53862 26422 ft 440 kts 337°
2026-05-01 13:37 13.04432 121.53035 26258 ft 440 kts 337°
2026-05-01 13:37 13.08206 121.51373 25927 ft 437 kts 337°
2026-05-01 13:37 13.10067 121.50553 25763 ft 436 kts 337°
2026-05-01 13:38 13.16535 121.47702 25190 ft 432 kts 337°
2026-05-01 13:38 13.18378 121.46890 25026 ft 431 kts 337°
2026-05-01 13:38 13.21125 121.45679 24782 ft 429 kts 337°
2026-05-01 13:39 13.24779 121.44067 24455 ft 427 kts 337°
2026-05-01 13:39 13.26609 121.43260 24290 ft 426 kts 337°
2026-05-01 13:39 13.30244 121.41656 23963 ft 425 kts 337°
2026-05-01 13:39 13.32936 121.40467 23720 ft 423 kts 337°
2026-05-01 13:40 13.35662 121.39263 23477 ft 422 kts 337°
2026-05-01 13:40 13.38348 121.38077 23238 ft 420 kts 338°
2026-05-01 13:40 13.41028 121.36893 23000 ft 418 kts 337°
2026-05-01 13:40 13.42802 121.36113 22800 ft 413 kts 339°
2026-05-01 13:41 13.45497 121.35161 22475 ft 404 kts 344°
2026-05-01 13:41 13.49070 121.34095 22050 ft 394 kts 345°
2026-05-01 13:41 13.51684 121.33322 21743 ft 387 kts 345°
2026-05-01 13:41 13.54253 121.32549 21441 ft 381 kts 345°
2026-05-01 13:42 13.55950 121.32032 21237 ft 376 kts 345°
2026-05-01 13:42 13.59261 121.31010 20931 ft 364 kts 345°
2026-05-01 13:42 13.61655 121.30266 20742 ft 355 kts 345°
2026-05-01 13:42 13.63983 121.29539 20437 ft 350 kts 345°
2026-05-01 13:43 13.66310 121.28811 20042 ft 348 kts 345°
2026-05-01 13:43 13.68623 121.28087 19638 ft 346 kts 345°
2026-05-01 13:43 13.70934 121.27362 19242 ft 344 kts 345°
2026-05-01 13:43 13.72480 121.26878 18979 ft 343 kts 345°
2026-05-01 13:44 13.75503 121.25929 18463 ft 340 kts 345°
2026-05-01 13:44 13.77007 121.25457 18203 ft 339 kts 345°
2026-05-01 13:44 13.80040 121.24504 17676 ft 337 kts 346°
2026-05-01 13:44 13.81526 121.24037 17418 ft 335 kts 346°
2026-05-01 13:45 13.83760 121.23336 17045 ft 333 kts 346°
2026-05-01 13:45 13.86686 121.22417 16558 ft 330 kts 346°
2026-05-01 13:45 13.88143 121.21959 16340 ft 327 kts 346°
2026-05-01 13:45 13.91090 121.21035 15383 ft 335 kts 346°
2026-05-01 13:46 13.93344 121.20327 14412 ft 341 kts 346°
2026-05-01 13:46 13.95572 121.19624 13892 ft 329 kts 346°
2026-05-01 13:46 13.97716 121.18946 13608 ft 317 kts 346°
2026-05-01 13:46 13.99829 121.18281 13308 ft 311 kts 346°
2026-05-01 13:47 14.01883 121.17635 12925 ft 309 kts 346°
2026-05-01 13:47 14.03952 121.16985 12551 ft 307 kts 346°
2026-05-01 13:47 14.05977 121.16350 12180 ft 305 kts 346°
2026-05-01 13:47 14.08047 121.15699 11807 ft 303 kts 346°
2026-05-01 13:48 14.10056 121.15066 11442 ft 302 kts 346°
2026-05-01 13:48 14.12068 121.14432 11069 ft 300 kts 346°
2026-05-01 13:48 14.13379 121.14015 10824 ft 300 kts 345°
2026-05-01 13:48 14.15790 121.12537 10297 ft 305 kts 321°
2026-05-01 13:49 14.17319 121.11044 9952 ft 303 kts 318°
2026-05-01 13:49 14.18797 121.09525 9597 ft 301 kts 317°
2026-05-01 13:49 14.20289 121.07978 9234 ft 299 kts 317°
2026-05-01 13:49 14.21751 121.06458 8876 ft 297 kts 317°
2026-05-01 13:50 14.23153 121.04995 8586 ft 284 kts 317°
2026-05-01 13:50 14.24540 121.03547 8059 ft 280 kts 317°
2026-05-01 13:50 14.25454 121.02593 7686 ft 279 kts 317°
2026-05-01 13:50 14.26834 121.00401 7323 ft 274 kts 292°
2026-05-01 13:51 14.27242 120.99152 7206 ft 269 kts 289°
2026-05-01 13:51 14.27931 120.96715 6848 ft 264 kts 288°
2026-05-01 13:51 14.28429 120.94895 6513 ft 263 kts 287°
2026-05-01 13:51 14.28921 120.93104 6193 ft 262 kts 287°
2026-05-01 13:52 14.29419 120.91290 5871 ft 260 kts 287°
2026-05-01 13:52 14.29910 120.89504 5546 ft 259 kts 287°
2026-05-01 13:52 14.30396 120.87738 5230 ft 258 kts 288°
2026-05-01 13:52 14.30890 120.85943 4933 ft 258 kts 287°
2026-05-01 13:53 14.31381 120.84174 4621 ft 257 kts 287°
2026-05-01 13:53 14.32849 120.81631 4025 ft 249 kts 329°
2026-05-01 13:53 14.34978 120.81027 3647 ft 232 kts 13°
2026-05-01 13:54 14.36478 120.81471 3633 ft 218 kts 25°
2026-05-01 13:54 14.37886 120.82066 3635 ft 218 kts 27°
2026-05-01 13:54 14.39292 120.82700 3628 ft 218 kts 29°
2026-05-01 13:54 14.40500 120.83603 3554 ft 210 kts 50°
2026-05-01 13:55 14.41335 120.84771 3360 ft 199 kts 60°
2026-05-01 13:55 14.42024 120.85976 3065 ft 193 kts 63°
2026-05-01 13:55 14.42672 120.87170 2793 ft 188 kts 63°
2026-05-01 13:55 14.43297 120.88315 2517 ft 175 kts 63°
2026-05-01 13:56 14.43874 120.89362 2269 ft 162 kts 63°
2026-05-01 13:56 14.44408 120.90326 2049 ft 149 kts 63°
2026-05-01 13:56 14.44895 120.91204 1896 ft 135 kts 62°
2026-05-01 13:56 14.45357 120.92036 1742 ft 134 kts 62°
2026-05-01 13:57 14.45827 120.92884 1583 ft 134 kts 62°
2026-05-01 13:57 14.46135 120.93437 1475 ft 133 kts 62°
2026-05-01 13:57 14.46754 120.94549 1257 ft 135 kts 63°
2026-05-01 13:57 14.47220 120.95389 1088 ft 136 kts 63°
2026-05-01 13:58 14.47695 120.96243 909 ft 138 kts 63°
2026-05-01 13:58 14.48168 120.97093 728 ft 137 kts 64°
2026-05-01 13:58 14.48647 120.97960 557 ft 137 kts 62°
2026-05-01 13:58 14.49124 120.98818 398 ft 139 kts 63°
2026-05-01 13:59 14.49599 120.99679 218 ft 139 kts 61°
2026-05-01 13:59 14.50083 121.00541 85 ft 134 kts 61°
2026-05-01 13:59 14.50481 121.01269 82 ft 92 kts 60°
2026-05-01 13:59 14.50647 121.01570 82 ft 55 kts 58°
2026-05-01 14:00 14.50839 121.01776 82 ft 12 kts 34°
2026-05-01 14:00 14.50883 121.01785 82 ft 7 kts 343°
2026-05-01 14:00 14.50924 121.01753 82 ft 7 kts 317°
2026-05-01 14:00 14.50932 121.01745 82 ft 0 kts 314°
2026-05-01 14:01 14.50943 121.01733 82 ft 4 kts 315°
2026-05-01 14:02 14.50986 121.01689 82 ft 8 kts 315°
2026-05-01 14:02 14.51032 121.01642 82 ft 10 kts 314°
2026-05-01 14:02 14.51087 121.01585 82 ft 12 kts 314°
2026-05-01 14:02 14.51152 121.01517 82 ft 14 kts 315°
2026-05-01 14:03 14.51223 121.01444 82 ft 9 kts 315°
2026-05-01 14:03 14.51287 121.01440 82 ft 11 kts 34°
2026-05-01 14:03 14.51325 121.01480 82 ft 12 kts 51°
2026-05-01 14:03 14.51383 121.01550 82 ft 13 kts 46°
2026-05-01 14:04 14.51422 121.01586 82 ft 10 kts 36°
2026-05-01 14:05 14.51730 121.01727 82 ft 3 kts 254°
2026-05-01 14:05 14.51713 121.01708 82 ft 4 kts 206°